Location: Dal�� Lhota
(48.7500°N, 14.0167°E)
Time: 07:46:12
(UTC+00:00)

Transit 2A - Pass Details

Date: 04 August 2021
Orbit: 594 x 964 km, 66.7° (Epoch: 24 September)

Event Time Altitude Azimuth Distance (km) Brightness Sun altitude
Rises 05:13:50 0° 223° (SW) 2,845 8.5 13.4°
Reaches altitude 10° 05:16:01 10° 226° (SW) 1,968 7.7 13.8°
Maximum altitude 05:20:24 65° 309° (NW) 711 5.9 14.5°
Drops below altitude 10° 05:25:10 10° 31° (NNE) 2,141 9.0 15.3°
Sets 05:27:39 0° 35° (NE) 3,121 9.8 15.7°
